2024-159H

Last updated on Wed Sep 18 2024 00:02:04 GMT+0000 (Coordinated Universal Time)

1 61018U 24159H 24261.39069178 .00051027 00000+0 37667-2 0 9990 2 61018 50.0051 185.0472 0006723 322.1313 37.9160 15.02700468 1717
UTC large
Height (km)
Speed (km/s)
/
Latitude / Longitude
Inclination (degrees)
Orbital Period (minutes)
Azimuth
Elevation
Range (km)
Doppler Factor

Next 0 passes for location: London (51.5072 / 0.1276)

Sorry there are no passes over London.